C/2020 R7 ( ATLAS )

Japanese version
Home page
Updated on January 6, 2021

---------------------------------------------------------------------

* Profile

Discovery Date September 15, 2020
Magnitude 19.0 mag
Discoverer Asteroid Terrestrial-Impact Last Alert System (ATLAS) search program

* Pictures

* Orbital Elements

Epoch 2022 Sept. 18.0 TT = JDT 2459840.5
T 2022 Sept. 16.22218 TT                                Rudenko
q   2.9559216            (2000.0)            P               Q
z  -0.0000544      Peri.  347.83751     +0.05931271     -0.41758040
 +/-0.0000782      Node   268.28107     -0.82290419     -0.53461774
e   1.0001609      Incl.  114.89098     -0.56507583     +0.73471796
From 111 observations 2020 Sept. 15-Nov. 16, mean residual 0".4.

* Finding Charts

* Magnitudes Graph

        m1 = 5.5 + 5 log d + 10.0 log r

---------------------------------------------------------------------

The orbital elements are published on M.P.E.C. 2020-W26.
The charts are made with StellaNavigator Ver.10 (AstroArts).
The magnitudes graphs are made with Comet for Windows.

---------------------------------------------------------------------

Copyright(C) Seiichi Yoshida (comet@aerith.net). All rights reserved.